Year,Month,Day,Hour,Minute,Value (Times are PST for temperature in C)
2010,09,30,00,00,15.00
2010,09,30,00,01,15.10
2010,09,30,00,02,15.10
2010,09,30,00,03,15.10
2010,09,30,00,04,15.10
2010,09,30,00,05,15.00
2010,09,30,00,06,15.00
2010,09,30,00,07,15.00
2010,09,30,00,08,15.00
2010,09,30,00,09,15.00
2010,09,30,00,10,15.00
2010,09,30,00,11,15.00
2010,09,30,00,12,15.00
2010,09,30,00,13,15.00
2010,09,30,00,14,15.00
2010,09,30,00,15,15.00
2010,09,30,00,16,15.00
2010,09,30,00,17,15.00
2010,09,30,00,18,15.00
2010,09,30,00,19,14.90
2010,09,30,00,20,14.80
2010,09,30,00,21,14.80
2010,09,30,00,22,14.70
2010,09,30,00,23,14.70
2010,09,30,00,24,14.70
2010,09,30,00,25,14.60
2010,09,30,00,26,14.60
2010,09,30,00,27,14.50
2010,09,30,00,28,14.40
2010,09,30,00,29,14.40
2010,09,30,00,30,14.40
2010,09,30,00,31,14.30
2010,09,30,00,32,14.30
2010,09,30,00,33,14.30
2010,09,30,00,34,14.30
2010,09,30,00,35,14.20
2010,09,30,00,36,14.30
2010,09,30,00,37,14.30
2010,09,30,00,38,14.30
2010,09,30,00,39,14.30
2010,09,30,00,40,14.30
2010,09,30,00,41,14.40
2010,09,30,00,42,14.40
2010,09,30,00,43,14.40
2010,09,30,00,44,14.40
2010,09,30,00,45,14.40
2010,09,30,00,46,14.40
2010,09,30,00,47,14.30
2010,09,30,00,48,14.30
2010,09,30,00,49,14.20
2010,09,30,00,50,14.10
2010,09,30,00,51,14.10
2010,09,30,00,52,14.00
2010,09,30,00,53,14.00
2010,09,30,00,54,13.90
2010,09,30,00,55,13.90
2010,09,30,00,56,13.80
2010,09,30,00,57,13.80
2010,09,30,00,58,13.70
2010,09,30,00,59,13.70
2010,09,30,01,00,13.60
2010,09,30,01,01,13.60
2010,09,30,01,02,13.60
2010,09,30,01,03,13.60
2010,09,30,01,04,13.60
2010,09,30,01,05,13.60
2010,09,30,01,06,13.60
2010,09,30,01,07,13.60
2010,09,30,01,08,13.60
2010,09,30,01,09,13.60
2010,09,30,01,10,13.50
2010,09,30,01,11,13.50
2010,09,30,01,12,13.50
2010,09,30,01,13,13.50
2010,09,30,01,14,13.40
2010,09,30,01,15,13.40
2010,09,30,01,16,13.50
2010,09,30,01,17,13.40
2010,09,30,01,18,13.40
2010,09,30,01,19,13.40
2010,09,30,01,20,13.40
2010,09,30,01,21,13.40
2010,09,30,01,22,13.40
2010,09,30,01,23,13.40
2010,09,30,01,24,13.40
2010,09,30,01,25,13.30
2010,09,30,01,26,13.30
2010,09,30,01,27,13.30
2010,09,30,01,28,13.30
2010,09,30,01,29,13.20
2010,09,30,01,30,13.20
2010,09,30,01,31,13.10
2010,09,30,01,32,13.10
2010,09,30,01,33,13.00
2010,09,30,01,34,13.00
2010,09,30,01,35,12.90
2010,09,30,01,36,12.90
2010,09,30,01,37,12.90
2010,09,30,01,38,12.90
2010,09,30,01,39,12.90
2010,09,30,01,40,12.90
2010,09,30,01,41,13.00
2010,09,30,01,42,13.00
2010,09,30,01,43,13.00
2010,09,30,01,44,13.00
2010,09,30,01,45,13.10
2010,09,30,01,46,13.00
2010,09,30,01,47,13.00
2010,09,30,01,48,13.00
2010,09,30,01,49,13.00
2010,09,30,01,50,13.00
2010,09,30,01,51,13.00
2010,09,30,01,52,12.90
2010,09,30,01,53,12.90
2010,09,30,01,54,12.90
2010,09,30,01,55,12.90
2010,09,30,01,56,12.80
2010,09,30,01,57,12.80
2010,09,30,01,58,12.80
2010,09,30,01,59,12.80
2010,09,30,02,00,12.80
2010,09,30,02,01,12.70
2010,09,30,02,02,12.60
2010,09,30,02,03,12.60
2010,09,30,02,04,12.50
2010,09,30,02,05,12.30
2010,09,30,02,06,12.20
2010,09,30,02,07,12.10
2010,09,30,02,08,12.00
2010,09,30,02,09,11.90
2010,09,30,02,10,11.80
2010,09,30,02,11,11.70
2010,09,30,02,12,11.60
2010,09,30,02,13,11.50
2010,09,30,02,14,11.50
2010,09,30,02,15,11.30
2010,09,30,02,16,11.30
2010,09,30,02,17,11.20
2010,09,30,02,18,11.20
2010,09,30,02,19,11.10
2010,09,30,02,20,11.00
2010,09,30,02,21,11.00
2010,09,30,02,22,10.90
2010,09,30,02,23,10.90
2010,09,30,02,24,10.90
2010,09,30,02,25,10.80
2010,09,30,02,26,10.80
2010,09,30,02,27,10.80
2010,09,30,02,28,10.70
2010,09,30,02,29,10.70
2010,09,30,02,30,10.70
2010,09,30,02,31,10.70
2010,09,30,02,32,10.70
2010,09,30,02,33,10.60
2010,09,30,02,34,10.60
2010,09,30,02,35,10.60
2010,09,30,02,36,10.60
2010,09,30,02,37,10.60
2010,09,30,02,38,10.60
2010,09,30,02,39,10.60
2010,09,30,02,40,10.50
2010,09,30,02,41,10.50
2010,09,30,02,42,10.40
2010,09,30,02,43,10.40
2010,09,30,02,44,10.40
2010,09,30,02,45,10.40
2010,09,30,02,46,10.30
2010,09,30,02,47,10.30
2010,09,30,02,48,10.30
2010,09,30,02,49,10.20
2010,09,30,02,50,10.20
2010,09,30,02,51,10.20
2010,09,30,02,52,10.10
2010,09,30,02,53,10.10
2010,09,30,02,54,10.10
2010,09,30,02,55,10.00
2010,09,30,02,56,10.00
2010,09,30,02,57,9.90
2010,09,30,02,58,9.90
2010,09,30,02,59,9.90
2010,09,30,03,00,9.80
2010,09,30,03,01,9.80
2010,09,30,03,02,9.80
2010,09,30,03,06,9.80
2010,09,30,03,07,9.80
2010,09,30,03,08,9.80
2010,09,30,03,09,9.80
2010,09,30,03,10,9.80
2010,09,30,03,11,9.80
2010,09,30,03,12,9.80
2010,09,30,03,13,9.80
2010,09,30,03,14,9.80
2010,09,30,03,15,9.80
2010,09,30,03,16,9.80
2010,09,30,03,17,9.80
2010,09,30,03,18,9.80
2010,09,30,03,19,9.80
2010,09,30,03,20,9.80
2010,09,30,03,21,9.80
2010,09,30,03,22,9.80
2010,09,30,03,23,9.80
2010,09,30,03,24,9.70
2010,09,30,03,25,9.70
2010,09,30,03,26,9.70
2010,09,30,03,27,9.60
2010,09,30,03,28,9.60
2010,09,30,03,29,9.60
2010,09,30,03,30,9.60
2010,09,30,03,31,9.60
2010,09,30,03,32,9.60
2010,09,30,03,33,9.50
2010,09,30,03,34,9.50
2010,09,30,03,35,9.50
2010,09,30,03,36,9.40
2010,09,30,03,37,9.40
2010,09,30,03,38,9.40
2010,09,30,03,39,9.30
2010,09,30,03,40,9.30
2010,09,30,03,41,9.30
2010,09,30,03,42,9.30
2010,09,30,03,43,9.20
2010,09,30,03,44,9.20
2010,09,30,03,45,9.20
2010,09,30,03,46,9.10
2010,09,30,03,47,9.10
2010,09,30,03,48,9.10
2010,09,30,03,49,9.00
2010,09,30,03,50,9.00
2010,09,30,03,51,8.90
2010,09,30,03,52,8.90
2010,09,30,03,53,8.90
2010,09,30,03,54,8.90
2010,09,30,03,55,8.90
2010,09,30,03,56,8.90
2010,09,30,03,57,8.90
2010,09,30,03,58,8.90
2010,09,30,03,59,8.90
2010,09,30,04,00,8.90
2010,09,30,04,01,8.90
2010,09,30,04,02,8.90
2010,09,30,04,03,8.90
2010,09,30,04,04,8.90
2010,09,30,04,05,8.90
2010,09,30,04,06,8.90
2010,09,30,04,07,8.90
2010,09,30,04,08,8.80
2010,09,30,04,09,8.80
2010,09,30,04,10,8.80
2010,09,30,04,11,8.80
2010,09,30,04,12,8.80
2010,09,30,04,13,8.80
2010,09,30,04,14,8.80
2010,09,30,04,15,8.80
2010,09,30,04,16,8.80
2010,09,30,04,17,8.70
2010,09,30,04,18,8.80
2010,09,30,04,19,8.80
2010,09,30,04,20,8.70
2010,09,30,04,21,8.70
2010,09,30,04,22,8.70
2010,09,30,04,23,8.70
2010,09,30,04,24,8.60
2010,09,30,04,25,8.60
2010,09,30,04,26,8.60
2010,09,30,04,27,8.60
2010,09,30,04,28,8.60
2010,09,30,04,29,8.60
2010,09,30,04,30,8.50
2010,09,30,04,31,8.50
2010,09,30,04,32,8.50
2010,09,30,04,33,8.60
2010,09,30,04,34,8.60
2010,09,30,04,35,8.60
2010,09,30,04,36,8.60
2010,09,30,04,37,8.70
2010,09,30,04,38,8.70
2010,09,30,04,39,8.70
2010,09,30,04,40,8.70
2010,09,30,04,41,8.80
2010,09,30,04,42,8.70
2010,09,30,04,43,8.70
2010,09,30,04,44,8.70
2010,09,30,04,45,8.70
2010,09,30,04,46,8.70
2010,09,30,04,47,8.70
2010,09,30,04,48,8.70
2010,09,30,04,49,8.70
2010,09,30,04,50,8.70
2010,09,30,04,51,8.70
2010,09,30,04,52,8.70
2010,09,30,04,53,8.70
2010,09,30,04,54,8.60
2010,09,30,04,55,8.70
2010,09,30,04,56,8.60
2010,09,30,04,57,8.60
2010,09,30,04,58,8.60
2010,09,30,04,59,8.60
2010,09,30,05,00,8.60
2010,09,30,05,01,8.60
2010,09,30,05,02,8.60
2010,09,30,05,03,8.60
2010,09,30,05,04,8.70
2010,09,30,05,05,8.70
2010,09,30,05,06,8.70
2010,09,30,05,07,8.60
2010,09,30,05,08,8.60
2010,09,30,05,09,8.60
2010,09,30,05,10,8.60
2010,09,30,05,11,8.50
2010,09,30,05,12,8.40
2010,09,30,05,13,8.40
2010,09,30,05,14,8.40
2010,09,30,05,15,8.30
2010,09,30,05,16,8.30
2010,09,30,05,17,8.30
2010,09,30,05,18,8.20
2010,09,30,05,19,8.20
2010,09,30,05,20,8.20
2010,09,30,05,21,8.20
2010,09,30,05,22,8.20
2010,09,30,05,23,8.20
2010,09,30,05,24,8.20
2010,09,30,05,25,8.20
2010,09,30,05,26,8.20
2010,09,30,05,27,8.30
2010,09,30,05,28,8.30
2010,09,30,05,29,8.30
2010,09,30,05,30,8.30
2010,09,30,05,31,8.30
2010,09,30,05,32,8.30
2010,09,30,05,33,8.30
2010,09,30,05,34,8.30
2010,09,30,05,35,8.30
2010,09,30,05,36,8.30
2010,09,30,05,37,8.30
2010,09,30,05,38,8.20
2010,09,30,05,39,8.20
2010,09,30,05,40,8.20
2010,09,30,05,41,8.20
2010,09,30,05,42,8.20
2010,09,30,05,43,8.20
2010,09,30,05,44,8.20
2010,09,30,05,45,8.20
2010,09,30,05,46,8.20
2010,09,30,05,47,8.20
2010,09,30,05,48,8.20
2010,09,30,05,49,8.10
2010,09,30,05,50,8.10
2010,09,30,05,51,8.10
2010,09,30,05,52,8.00
2010,09,30,05,53,8.00
2010,09,30,05,54,8.00
2010,09,30,05,55,7.90
2010,09,30,05,56,7.90
2010,09,30,05,57,7.90
2010,09,30,05,58,7.90
2010,09,30,05,59,7.90
2010,09,30,06,00,7.80
2010,09,30,06,01,7.80
2010,09,30,06,02,7.80
2010,09,30,06,03,7.80
2010,09,30,06,04,7.80
2010,09,30,06,05,7.80
2010,09,30,06,06,7.90
2010,09,30,06,07,7.90
2010,09,30,06,08,7.90
2010,09,30,06,09,7.90
2010,09,30,06,10,7.90
2010,09,30,06,11,7.90
2010,09,30,06,12,7.90
2010,09,30,06,13,7.90
2010,09,30,06,14,7.90
2010,09,30,06,15,7.90
2010,09,30,06,16,7.90
2010,09,30,06,17,7.90
2010,09,30,06,18,7.90
2010,09,30,06,19,7.90
2010,09,30,06,20,7.90
2010,09,30,06,21,7.80
2010,09,30,06,22,7.80
2010,09,30,06,23,7.80
2010,09,30,06,24,7.80
2010,09,30,06,25,7.80
2010,09,30,06,26,7.80
2010,09,30,06,27,7.70
2010,09,30,06,28,7.70
2010,09,30,06,29,7.70
2010,09,30,06,30,7.70
2010,09,30,06,31,7.70
2010,09,30,06,32,7.60
2010,09,30,06,33,7.60
2010,09,30,06,34,7.60
2010,09,30,06,35,7.50
2010,09,30,06,36,7.50
2010,09,30,06,37,7.50
2010,09,30,06,38,7.50
2010,09,30,06,39,7.60
2010,09,30,06,40,7.60
2010,09,30,06,41,7.60
2010,09,30,06,42,7.60
2010,09,30,06,43,7.60
2010,09,30,06,44,7.60
2010,09,30,06,45,7.60
2010,09,30,06,46,7.60
2010,09,30,06,47,7.60
2010,09,30,06,48,7.60
2010,09,30,06,49,7.60
2010,09,30,06,50,7.60
2010,09,30,06,51,7.60
2010,09,30,06,52,7.60
2010,09,30,06,53,7.60
2010,09,30,06,54,7.60
2010,09,30,06,55,7.70
2010,09,30,06,56,7.70
2010,09,30,06,57,7.70
2010,09,30,06,58,7.70
2010,09,30,06,59,7.70
2010,09,30,07,00,7.70
2010,09,30,07,01,7.70
2010,09,30,07,02,7.60
2010,09,30,07,03,7.60
2010,09,30,07,04,7.60
2010,09,30,07,05,7.60
2010,09,30,07,06,7.60
2010,09,30,07,07,7.60
2010,09,30,07,08,7.60
2010,09,30,07,09,7.50
2010,09,30,07,10,7.50
2010,09,30,07,11,7.50
2010,09,30,07,12,7.50
2010,09,30,07,13,7.50
2010,09,30,07,14,7.50
2010,09,30,07,15,7.40
2010,09,30,07,16,7.40
2010,09,30,07,17,7.50
2010,09,30,07,18,7.50
2010,09,30,07,19,7.50
2010,09,30,07,20,7.50
2010,09,30,07,21,7.50
2010,09,30,07,22,7.40
2010,09,30,07,23,7.40
2010,09,30,07,24,7.40
2010,09,30,07,25,7.40
2010,09,30,07,26,7.40
2010,09,30,07,27,7.40
2010,09,30,07,28,7.40
2010,09,30,07,29,7.40
2010,09,30,07,30,7.40
2010,09,30,07,31,7.40
2010,09,30,07,32,7.40
2010,09,30,07,33,7.50
2010,09,30,07,34,7.50
2010,09,30,07,35,7.60
2010,09,30,07,36,7.60
2010,09,30,07,37,7.70
2010,09,30,07,38,7.70
2010,09,30,07,39,7.70
2010,09,30,07,40,7.70
2010,09,30,07,41,7.80
2010,09,30,07,42,7.80
2010,09,30,07,43,7.80
2010,09,30,07,44,7.90
2010,09,30,07,45,7.90
2010,09,30,07,46,7.90
2010,09,30,07,47,7.90
2010,09,30,07,48,8.00
2010,09,30,07,49,8.00
2010,09,30,07,50,8.10
2010,09,30,07,51,8.10
2010,09,30,07,52,8.20
2010,09,30,07,53,8.20
2010,09,30,07,54,8.30
2010,09,30,07,55,8.30
2010,09,30,07,56,8.30
2010,09,30,07,57,8.30
2010,09,30,07,58,8.30
2010,09,30,07,59,8.40
2010,09,30,08,00,8.40
2010,09,30,08,01,8.50
2010,09,30,08,02,8.50
2010,09,30,08,03,8.60
2010,09,30,08,04,8.60
2010,09,30,08,05,8.70
2010,09,30,08,06,8.70
2010,09,30,08,07,8.70
2010,09,30,08,08,8.80
2010,09,30,08,09,8.80
2010,09,30,08,10,8.90
2010,09,30,08,11,8.90
2010,09,30,08,12,9.00
2010,09,30,08,13,9.00
2010,09,30,08,14,9.10
2010,09,30,08,15,9.20
2010,09,30,08,16,9.20
2010,09,30,08,17,9.30
2010,09,30,08,18,9.40
2010,09,30,08,19,9.50
2010,09,30,08,20,9.50
2010,09,30,08,21,9.60
2010,09,30,08,22,9.70
2010,09,30,08,23,9.80
2010,09,30,08,24,9.80
2010,09,30,08,25,9.90
2010,09,30,08,26,10.00
2010,09,30,08,27,10.10
2010,09,30,08,28,10.10
2010,09,30,08,29,10.20
2010,09,30,08,30,10.30
2010,09,30,08,31,10.40
2010,09,30,08,32,10.50
2010,09,30,08,33,10.60
2010,09,30,08,34,10.70
2010,09,30,08,35,10.70
2010,09,30,08,36,10.80
2010,09,30,08,37,10.90
2010,09,30,08,38,11.00
2010,09,30,08,39,11.00
2010,09,30,08,40,11.10
2010,09,30,08,41,11.20
2010,09,30,08,42,11.30
2010,09,30,08,43,11.40
2010,09,30,08,44,11.50
2010,09,30,08,45,11.60
2010,09,30,08,46,11.70
2010,09,30,08,47,11.80
2010,09,30,08,48,11.90
2010,09,30,08,49,12.00
2010,09,30,08,50,12.10
2010,09,30,08,51,12.20
2010,09,30,08,52,12.30
2010,09,30,08,53,12.30
2010,09,30,08,54,12.40
2010,09,30,08,55,12.50
2010,09,30,08,56,12.60
2010,09,30,08,57,12.70
2010,09,30,08,58,12.80
2010,09,30,08,59,12.90
2010,09,30,09,00,13.10
2010,09,30,09,01,13.30
2010,09,30,09,02,13.40
2010,09,30,09,03,13.50
2010,09,30,09,04,13.60
2010,09,30,09,05,13.60
2010,09,30,09,06,13.60
2010,09,30,09,07,13.60
2010,09,30,09,08,13.60
2010,09,30,09,09,13.70
2010,09,30,09,10,13.70
2010,09,30,09,11,13.80
2010,09,30,09,12,13.80
2010,09,30,09,13,13.80
2010,09,30,09,14,13.80
2010,09,30,09,15,13.90
2010,09,30,09,16,14.00
2010,09,30,09,17,14.10
2010,09,30,09,18,14.20
2010,09,30,09,19,14.30
2010,09,30,09,20,14.30
2010,09,30,09,21,14.40
2010,09,30,09,22,14.50
2010,09,30,09,23,14.60
2010,09,30,09,24,14.70
2010,09,30,09,25,14.80
2010,09,30,09,26,14.80
2010,09,30,09,27,14.90
2010,09,30,09,28,14.90
2010,09,30,09,29,15.00
2010,09,30,09,30,15.00
2010,09,30,09,31,15.00
2010,09,30,09,32,15.00
2010,09,30,09,33,15.10
2010,09,30,09,34,15.10
2010,09,30,09,35,15.20
2010,09,30,09,36,15.30
2010,09,30,09,37,15.40
2010,09,30,09,38,15.50
2010,09,30,09,39,15.50
2010,09,30,09,40,15.50
2010,09,30,09,41,15.40
2010,09,30,09,42,15.30
2010,09,30,09,43,15.30
2010,09,30,09,44,15.20
2010,09,30,09,45,15.10
2010,09,30,09,46,15.10
2010,09,30,09,47,15.10
2010,09,30,09,48,15.10
2010,09,30,09,49,15.10
2010,09,30,09,50,15.10
2010,09,30,09,51,15.10
2010,09,30,09,52,15.00
2010,09,30,09,53,15.10
2010,09,30,09,54,15.00
2010,09,30,09,55,15.00
2010,09,30,09,56,15.00
2010,09,30,09,57,15.00
2010,09,30,09,58,15.10
2010,09,30,09,59,15.20
2010,09,30,10,00,15.20
2010,09,30,10,01,15.20
2010,09,30,10,02,15.20
2010,09,30,10,03,15.40
2010,09,30,10,04,15.50
2010,09,30,10,05,15.60
2010,09,30,10,06,15.60
2010,09,30,10,07,15.60
2010,09,30,10,08,15.70
2010,09,30,10,09,15.70
2010,09,30,10,10,15.60
2010,09,30,10,11,15.50
2010,09,30,10,12,15.40
2010,09,30,10,13,15.30
2010,09,30,10,14,15.30
2010,09,30,10,15,15.30
2010,09,30,10,16,15.40
2010,09,30,10,17,15.50
2010,09,30,10,18,15.50
2010,09,30,10,19,15.60
2010,09,30,10,20,15.70
2010,09,30,10,21,15.60
2010,09,30,10,22,15.50
2010,09,30,10,23,15.50
2010,09,30,10,24,15.60
2010,09,30,10,25,15.60
2010,09,30,10,26,15.60
2010,09,30,10,27,15.60
2010,09,30,10,28,15.60
2010,09,30,10,29,15.60
2010,09,30,10,30,15.70
2010,09,30,10,31,15.70
2010,09,30,10,32,15.70
2010,09,30,10,33,15.70
2010,09,30,10,34,15.70
2010,09,30,10,35,15.70
2010,09,30,10,36,15.70
2010,09,30,10,37,15.70
2010,09,30,10,38,15.80
2010,09,30,10,39,15.80
2010,09,30,10,40,15.90
2010,09,30,10,41,15.90
2010,09,30,10,42,15.90
2010,09,30,10,43,15.90
2010,09,30,10,44,16.00
2010,09,30,10,45,16.00
2010,09,30,10,46,16.00
2010,09,30,10,47,16.00
2010,09,30,10,48,16.00
2010,09,30,10,49,16.10
2010,09,30,10,50,16.20
2010,09,30,10,51,16.30
2010,09,30,10,52,16.40
2010,09,30,10,53,16.50
2010,09,30,10,54,16.60
2010,09,30,10,55,16.70
2010,09,30,10,56,16.80
2010,09,30,10,57,16.90
2010,09,30,10,58,17.00
2010,09,30,10,59,17.10
2010,09,30,11,00,17.20
2010,09,30,11,01,17.20
2010,09,30,11,02,17.20
2010,09,30,11,03,17.30
2010,09,30,11,04,17.40
2010,09,30,11,05,17.50
2010,09,30,11,06,17.60
2010,09,30,11,07,17.60
2010,09,30,11,08,17.60
2010,09,30,11,09,17.80
2010,09,30,11,10,17.90
2010,09,30,11,11,17.90
2010,09,30,11,12,18.00
2010,09,30,11,13,18.20
2010,09,30,11,14,18.20
2010,09,30,11,15,18.30
2010,09,30,11,16,18.40
2010,09,30,11,17,18.40
2010,09,30,11,18,18.50
2010,09,30,11,19,18.50
2010,09,30,11,20,18.60
2010,09,30,11,21,18.60
2010,09,30,11,22,18.70
2010,09,30,11,23,18.80
2010,09,30,11,24,18.90
2010,09,30,11,25,19.00
2010,09,30,11,26,19.10
2010,09,30,11,27,19.10
2010,09,30,11,28,19.10
2010,09,30,11,29,19.10
2010,09,30,11,30,19.20
2010,09,30,11,31,19.20
2010,09,30,11,32,19.30
2010,09,30,11,33,19.20
2010,09,30,11,34,19.30
2010,09,30,11,35,19.30
2010,09,30,11,36,19.30
2010,09,30,11,37,19.20
2010,09,30,11,38,19.20
2010,09,30,11,39,19.30
2010,09,30,11,40,19.30
2010,09,30,11,41,19.20
2010,09,30,11,42,19.30
2010,09,30,11,43,19.30
2010,09,30,11,44,19.20
2010,09,30,11,45,19.30
2010,09,30,11,46,19.30
2010,09,30,11,47,19.30
2010,09,30,11,48,19.30
2010,09,30,11,49,19.30
2010,09,30,11,50,19.30
2010,09,30,11,51,19.30
2010,09,30,11,52,19.30
2010,09,30,11,53,19.30
2010,09,30,11,54,19.30
2010,09,30,11,55,19.30
2010,09,30,11,56,19.30
2010,09,30,11,57,19.40
2010,09,30,11,58,19.40
2010,09,30,11,59,19.40
2010,09,30,12,00,19.50
2010,09,30,12,01,19.50
2010,09,30,12,02,19.50
2010,09,30,12,03,19.60
2010,09,30,12,04,19.60
2010,09,30,12,05,19.70
2010,09,30,12,06,19.80
2010,09,30,12,07,19.80
2010,09,30,12,08,19.80
2010,09,30,12,09,19.80
2010,09,30,12,10,19.80
2010,09,30,12,11,19.80
2010,09,30,12,12,19.80
2010,09,30,12,13,19.80
2010,09,30,12,14,19.90
2010,09,30,12,15,19.90
2010,09,30,12,16,20.00
2010,09,30,12,17,20.10
2010,09,30,12,18,20.10
2010,09,30,12,19,20.10
2010,09,30,12,20,20.10
2010,09,30,12,21,20.10
2010,09,30,12,22,20.10
2010,09,30,12,23,20.20
2010,09,30,12,24,20.20
2010,09,30,12,25,20.20
2010,09,30,12,26,20.30
2010,09,30,12,27,20.30
2010,09,30,12,28,20.30
2010,09,30,12,29,20.30
2010,09,30,12,30,20.30
2010,09,30,12,31,20.30
2010,09,30,12,32,20.30
2010,09,30,12,33,20.30
2010,09,30,12,34,20.40
2010,09,30,12,35,20.40
2010,09,30,12,36,20.40
2010,09,30,12,37,20.40
2010,09,30,12,38,20.50
2010,09,30,12,39,20.50
2010,09,30,12,40,20.60
2010,09,30,12,41,20.60
2010,09,30,12,42,20.60
2010,09,30,12,43,20.70
2010,09,30,12,44,20.70
2010,09,30,12,45,20.70
2010,09,30,12,46,20.70
2010,09,30,12,47,20.70
2010,09,30,12,48,20.70
2010,09,30,12,49,20.70
2010,09,30,12,50,20.70
2010,09,30,12,51,20.70
2010,09,30,12,52,20.70
2010,09,30,12,53,20.80
2010,09,30,12,54,20.80
2010,09,30,12,55,20.90
2010,09,30,12,56,20.90
2010,09,30,12,57,20.90
2010,09,30,12,58,20.80
2010,09,30,12,59,20.80
2010,09,30,13,00,20.80
2010,09,30,13,01,20.80
2010,09,30,13,02,20.90
2010,09,30,13,03,20.90
2010,09,30,13,04,21.00
2010,09,30,13,05,21.10
2010,09,30,13,06,21.10
2010,09,30,13,07,21.20
2010,09,30,13,08,21.30
2010,09,30,13,09,21.30
2010,09,30,13,10,21.30
2010,09,30,13,11,21.40
2010,09,30,13,12,21.40
2010,09,30,13,13,21.40
2010,09,30,13,14,21.40
2010,09,30,13,15,21.40
2010,09,30,13,16,21.30
2010,09,30,13,17,21.20
2010,09,30,13,18,21.20
2010,09,30,13,19,21.10
2010,09,30,13,20,21.10
2010,09,30,13,21,21.10
2010,09,30,13,22,21.10
2010,09,30,13,23,21.20
2010,09,30,13,24,21.30
2010,09,30,13,25,21.50
2010,09,30,13,26,21.60
2010,09,30,13,27,21.60
2010,09,30,13,28,21.70
2010,09,30,13,29,21.80
2010,09,30,13,30,21.80
2010,09,30,13,31,21.80
2010,09,30,13,32,21.80
2010,09,30,13,33,21.80
2010,09,30,13,34,21.80
2010,09,30,13,35,21.80
2010,09,30,13,36,21.80
2010,09,30,13,37,21.80
2010,09,30,13,38,21.80
2010,09,30,13,39,21.60
2010,09,30,13,40,21.50
2010,09,30,13,41,21.50
2010,09,30,13,42,21.40
2010,09,30,13,43,21.50
2010,09,30,13,44,21.50
2010,09,30,13,45,21.60
2010,09,30,13,46,21.50
2010,09,30,13,47,21.50
2010,09,30,13,48,21.40
2010,09,30,13,49,21.40
2010,09,30,13,50,21.50
2010,09,30,13,51,21.60
2010,09,30,13,52,21.60
2010,09,30,13,53,21.60
2010,09,30,13,54,21.70
2010,09,30,13,55,21.70
2010,09,30,13,56,21.80
2010,09,30,13,57,21.80
2010,09,30,13,58,21.80
2010,09,30,13,59,21.90
2010,09,30,14,00,21.90
2010,09,30,14,01,21.90
2010,09,30,14,02,21.90
2010,09,30,14,03,21.80
2010,09,30,14,04,21.80
2010,09,30,14,05,21.70
2010,09,30,14,06,21.70
2010,09,30,14,07,21.70
2010,09,30,14,08,21.60
2010,09,30,14,09,21.60
2010,09,30,14,10,21.50
2010,09,30,14,11,21.40
2010,09,30,14,12,21.30
2010,09,30,14,13,21.30
2010,09,30,14,14,21.30
2010,09,30,14,15,21.30
2010,09,30,14,16,21.30
2010,09,30,14,17,21.40
2010,09,30,14,18,21.40
2010,09,30,14,19,21.50
2010,09,30,14,20,21.50
2010,09,30,14,21,21.40
2010,09,30,14,22,21.40
2010,09,30,14,23,21.40
2010,09,30,14,24,21.30
2010,09,30,14,25,21.20
2010,09,30,14,26,21.20
2010,09,30,14,27,21.20
2010,09,30,14,28,21.30
2010,09,30,14,29,21.30
2010,09,30,14,30,21.40
2010,09,30,14,31,21.40
2010,09,30,14,32,21.50
2010,09,30,14,33,21.50
2010,09,30,14,34,21.60
2010,09,30,14,35,21.70
2010,09,30,14,36,21.70
2010,09,30,14,37,21.60
2010,09,30,14,38,21.60
2010,09,30,14,39,21.60
2010,09,30,14,40,21.60
2010,09,30,14,41,21.50
2010,09,30,14,42,21.50
2010,09,30,14,43,21.50
2010,09,30,14,44,21.40
2010,09,30,14,45,21.20
2010,09,30,14,46,21.20
2010,09,30,14,47,21.10
2010,09,30,14,48,21.00
2010,09,30,14,49,20.80
2010,09,30,14,50,20.70
2010,09,30,14,51,20.70
2010,09,30,14,52,20.60
2010,09,30,14,53,20.50
2010,09,30,14,54,20.40
2010,09,30,14,55,20.30
2010,09,30,14,56,20.20
2010,09,30,14,57,20.10
2010,09,30,14,58,20.00
2010,09,30,14,59,19.90
2010,09,30,15,00,19.90
2010,09,30,15,01,19.90
2010,09,30,15,02,20.00
2010,09,30,15,03,20.00
2010,09,30,15,04,20.10
2010,09,30,15,05,20.00
2010,09,30,15,06,19.90
2010,09,30,15,07,19.90
2010,09,30,15,08,19.90
2010,09,30,15,09,19.90
2010,09,30,15,10,19.90
2010,09,30,15,11,20.00
2010,09,30,15,12,20.00
2010,09,30,15,13,20.00
2010,09,30,15,14,20.00
2010,09,30,15,15,20.00
2010,09,30,15,16,20.10
2010,09,30,15,17,20.10
2010,09,30,15,18,20.20
2010,09,30,15,19,20.30
2010,09,30,15,20,20.30
2010,09,30,15,21,20.40
2010,09,30,15,22,20.40
2010,09,30,15,23,20.40
2010,09,30,15,24,20.20
2010,09,30,15,25,20.10
2010,09,30,15,26,20.00
2010,09,30,15,27,19.90
2010,09,30,15,28,19.90
2010,09,30,15,29,19.90
2010,09,30,15,30,19.90
2010,09,30,15,31,19.80
2010,09,30,15,32,19.80
2010,09,30,15,33,19.80
2010,09,30,15,34,19.80
2010,09,30,15,35,19.80
2010,09,30,15,36,19.80
2010,09,30,15,37,19.70
2010,09,30,15,38,19.70
2010,09,30,15,39,19.70
2010,09,30,15,40,19.70
2010,09,30,15,41,19.70
2010,09,30,15,42,19.70
2010,09,30,15,43,19.60
2010,09,30,15,44,19.60
2010,09,30,15,45,19.60
2010,09,30,15,46,19.60
2010,09,30,15,47,19.60
2010,09,30,15,48,19.50
2010,09,30,15,49,19.40
2010,09,30,15,50,19.30
2010,09,30,15,51,19.30
2010,09,30,15,52,19.30
2010,09,30,15,53,19.20
2010,09,30,15,54,19.20
2010,09,30,15,55,19.20
2010,09,30,15,56,19.20
2010,09,30,15,57,19.20
2010,09,30,15,58,19.20
2010,09,30,15,59,19.30
2010,09,30,16,00,19.40
2010,09,30,16,01,19.40
2010,09,30,16,02,19.50
2010,09,30,16,03,19.60
2010,09,30,16,04,19.70
2010,09,30,16,05,19.80
2010,09,30,16,06,19.90
2010,09,30,16,07,19.90
2010,09,30,16,08,19.90
2010,09,30,16,09,19.90
2010,09,30,16,10,20.00
2010,09,30,16,11,20.00
2010,09,30,16,12,20.00
2010,09,30,16,13,19.90
2010,09,30,16,14,19.80
2010,09,30,16,15,19.80
2010,09,30,16,16,19.80
2010,09,30,16,17,19.70
2010,09,30,16,18,19.70
2010,09,30,16,19,19.80
2010,09,30,16,20,19.90
2010,09,30,16,21,19.90
2010,09,30,16,22,19.80
2010,09,30,16,23,19.80
2010,09,30,16,24,19.80
2010,09,30,16,25,19.80
2010,09,30,16,26,19.80
2010,09,30,16,27,19.80
2010,09,30,16,28,19.80
2010,09,30,16,29,19.80
2010,09,30,16,30,19.80
2010,09,30,16,31,19.80
2010,09,30,16,32,19.90
2010,09,30,16,33,19.90
2010,09,30,16,34,19.90
2010,09,30,16,35,20.00
2010,09,30,16,36,19.90
2010,09,30,16,37,19.90
2010,09,30,16,38,19.80
2010,09,30,16,39,19.70
2010,09,30,16,40,19.70
2010,09,30,16,41,19.60
2010,09,30,16,42,19.60
2010,09,30,16,43,19.60
2010,09,30,16,44,19.60
2010,09,30,16,45,19.60
2010,09,30,16,46,19.50
2010,09,30,16,47,19.30
2010,09,30,16,48,19.20
2010,09,30,16,49,19.10
2010,09,30,16,50,19.00
2010,09,30,16,51,18.90
2010,09,30,16,52,18.80
2010,09,30,16,53,18.70
2010,09,30,16,54,18.70
2010,09,30,16,55,18.60
2010,09,30,16,56,18.50
2010,09,30,16,57,18.40
2010,09,30,16,58,18.30
2010,09,30,16,59,18.20
2010,09,30,17,00,18.20
2010,09,30,17,01,18.10
2010,09,30,17,02,18.10
2010,09,30,17,03,18.20
2010,09,30,17,04,18.20
2010,09,30,17,05,18.20
2010,09,30,17,06,18.20
2010,09,30,17,07,18.20
2010,09,30,17,08,18.30
2010,09,30,17,09,18.40
2010,09,30,17,10,18.40
2010,09,30,17,11,18.50
2010,09,30,17,12,18.50
2010,09,30,17,13,18.60
2010,09,30,17,14,18.60
2010,09,30,17,15,18.70
2010,09,30,17,16,18.70
2010,09,30,17,17,18.70
2010,09,30,17,18,18.70
2010,09,30,17,19,18.70
2010,09,30,17,20,18.70
2010,09,30,17,21,18.70
2010,09,30,17,22,18.70
2010,09,30,17,23,18.80
2010,09,30,17,24,18.80
2010,09,30,17,25,18.80
2010,09,30,17,26,18.80
2010,09,30,17,27,18.90
2010,09,30,17,28,18.90
2010,09,30,17,29,19.00
2010,09,30,17,30,19.00
2010,09,30,17,31,19.10
2010,09,30,17,32,19.10
2010,09,30,17,33,19.10
2010,09,30,17,34,19.20
2010,09,30,17,35,19.30
2010,09,30,17,36,19.30